Location: Newark
(29.4733°N, 82.6067°W)
Time: 06:37:23
(UTC+00:00)

X-37B - Pass Details

Date: 22 September 2021
Orbit: 385 x 389 km, 45.0° (Epoch: 17 October)

Event Time Altitude Azimuth Distance (km) Brightness Sun altitude
Exits shadow 09:32:23 21° 21° (NNE) 945 2.9 -23.8°
Drops below altitude 10° 09:33:43 10° 35° (NE) 1,410 4.0 -23.5°
Sets 09:35:54 0° 45° (NE) 2,267 5.4 -23.0°
